Wenatchee, WA
on Sunday, December 23, 2012

Sunday
Previous Day Next Day
Daily Summary
 ActualAverageRecord
Temperature
Mean Temperature °F 25°F  
Max Temperature 34°F 30°F 45°F (1969)
Min Temperature 28°F 19°F -15°F (1983)
Degree Days
Heating Degree Days 34 40  
Month to date heating degree days 712 897  
Since 1 July heating degree days 1871 2779  
Cooling Degree Days 0 0  
Month to date cooling degree days 0 0  
Year to date cooling degree days 888 249  
Moisture
Dew Point 29°F   
Average Humidity 91    
Maximum Humidity 100    
Minimum Humidity 82    
Precipitation
Precipitation 0.29 in 0.09 in 0.49 in (1979)
Month to date precipitation 1.58 1.90  
Year to date precipitation 9.09 16.45  
Snow
Snow 0.00 in 0.60 in in ()
Month to date snowfall 11.9  
Since 1 July snowfall 19.8  
Snow Depth in   
Wind
Wind Speed 4 mph   
Max Wind Speed 13 mph   
Max Gust Speed 15 mph   
Visibility 5 miles   
Events Fog , Snow   

Key: T is trace of precipitation, MM is missing value
Source: NWS Daily Summary
Time(PST)TemperatureDew PointHumidity Pressure Visibility Wind DirectionWind SpeedGust SpeedPrecipitationEvents Conditions
12:55 AM 33.1°F 28.9°F 85% 29.82 in 10.0 miles Calm Calm - N/A   Overcast
1:55 AM 32.0°F 28.0°F 85% 29.84 in 10.0 miles Calm Calm - N/A   Overcast
2:33 AM 28.4°F 26.6°F 93% 29.81 in 10.0 miles Calm Calm - N/A   Scattered Clouds
2:48 AM 30.2°F 26.6°F 86% 29.81 in 10.0 miles NE 3.5 mph - N/A   Mostly Cloudy
2:55 AM 30.0°F 26.1°F 85% 29.85 in 10.0 miles NE 3.5 mph - N/A   Mostly Cloudy
3:55 AM 30.0°F 26.1°F 85% 29.86 in 10.0 miles Calm Calm - N/A   Overcast
4:52 AM 30.2°F 26.6°F 86% 29.83 in 10.0 miles Calm Calm - N/A   Overcast
4:55 AM 30.9°F 27.0°F 85% 29.86 in 10.0 miles Calm Calm - N/A   Overcast
5:27 AM 30.2°F 28.4°F 93% 29.82 in 10.0 miles Calm Calm - N/A   Overcast
5:34 AM 32.0°F 28.4°F 87% 29.83 in 10.0 miles Calm Calm - N/A   Overcast
5:55 AM 30.0°F 27.0°F 88% 29.86 in 10.0 miles NE 4.6 mph - N/A   Overcast
6:50 AM 30.2°F 28.4°F 93% 29.82 in 10.0 miles Calm Calm - N/A   Overcast
6:55 AM 30.9°F 28.0°F 89% 29.86 in 10.0 miles Calm Calm - N/A   Overcast
7:39 AM 30.2°F 28.4°F 93% 29.83 in 10.0 miles Calm Calm - N/A   Overcast
7:55 AM 30.9°F 28.9°F 92% 29.86 in 7.0 miles Calm Calm - N/A   Overcast
8:16 AM 30.2°F 28.4°F 93% 29.83 in 8.0 miles Calm Calm - N/A   Overcast
8:55 AM 30.9°F 28.0°F 89% 29.86 in 6.0 miles Calm Calm - 0.00 in Snow Light Snow
9:10 AM 32.0°F 28.4°F 87% 29.82 in 4.0 miles Calm Calm - 0.00 in   Overcast
9:55 AM 33.1°F 28.9°F 85% 29.86 in 10.0 miles Calm Calm - 0.00 in   Overcast
10:55 AM 33.1°F 30.0°F 89% 29.82 in 8.0 miles Calm Calm - N/A   Overcast
11:55 AM 33.1°F 28.9°F 85% 29.80 in 10.0 miles Calm Calm - N/A   Overcast
12:19 PM 33.8°F 28.4°F 81% 29.76 in 10.0 miles Calm Calm - N/A   Overcast
12:55 PM 32.0°F 28.9°F 88% 29.77 in 3.0 miles Calm Calm - 0.00 in Snow Light Snow
1:55 PM 32.0°F 28.9°F 88% 29.75 in 4.0 miles Calm Calm - 0.00 in   Overcast
2:13 PM 32.0°F 28.4°F 87% 29.71 in 2.0 miles Calm Calm - 0.00 in Snow Light Snow
2:27 PM 33.8°F 30.2°F 87% 29.70 in 1.5 miles Calm Calm - 0.00 in Snow Light Snow
2:35 PM 32.0°F 30.2°F 93% 29.70 in 1.5 miles Calm Calm - 0.00 in Snow Light Snow
2:43 PM 32.0°F 30.2°F 93% 29.70 in 1.5 miles West 3.5 mph - 0.00 in Snow Light Snow
2:55 PM 32.0°F 30.0°F 92% 29.73 in 1.5 miles NW 3.5 mph - 0.00 in Snow Light Snow
3:00 PM 32.0°F 30.2°F 93% 29.69 in 2.0 miles West 4.6 mph - 0.00 in Snow Light Snow
3:13 PM 32.0°F 30.2°F 93% 29.69 in 1.5 miles WNW 5.8 mph - 0.00 in Snow Light Snow
3:52 PM 32.0°F 30.2°F 93% 29.69 in 0.8 miles WNW 5.8 mph - 0.00 in Snow Light Snow
3:55 PM 32.0°F 30.0°F 92% 29.72 in 0.8 miles WNW 5.8 mph - 0.00 in Snow Light Snow
4:16 PM 32.0°F 30.2°F 93% 29.68 in 0.2 miles West 5.8 mph - 0.00 in Fog , Snow Light Snow
4:26 PM 32.0°F 30.2°F 93% 29.68 in 0.5 miles West 6.9 mph - 0.01 in Fog , Snow Light Snow
4:55 PM 32.0°F 30.0°F 92% 29.70 in 0.5 miles West 6.9 mph - 0.02 in Fog , Snow Snow
5:55 PM 30.9°F 30.0°F 96% 29.68 in 0.5 miles West 11.5 mph - 0.03 in Fog , Snow Snow
6:55 PM 30.9°F 30.0°F 96% 29.68 in 0.5 miles West 9.2 mph - 0.07 in Fog , Snow Snow
7:55 PM 32.0°F 30.0°F 92% 29.70 in 0.5 miles West 5.8 mph - 0.11 in Fog , Snow Snow
8:19 PM 32.0°F 30.2°F 93% 29.66 in 1.0 miles WNW 5.8 mph - 0.03 in Snow Light Snow
8:55 PM 30.9°F 30.0°F 96% 29.70 in 1.8 miles WNW 8.1 mph - 0.04 in Snow Light Snow
9:06 PM 30.2°F 30.2°F 100% 29.67 in 1.5 miles WNW 8.1 mph - 0.00 in Snow Light Snow
9:55 PM 30.9°F 30.0°F 96% 29.71 in 1.0 miles WNW 8.1 mph - 0.01 in Snow Light Snow
10:02 PM 30.2°F 30.2°F 100% 29.68 in 0.8 miles WNW 9.2 mph - 0.01 in Snow Light Snow
10:12 PM 30.2°F 30.2°F 100% 29.68 in 1.0 miles WNW 8.1 mph - 0.01 in Snow Light Snow
10:27 PM 30.2°F 30.2°F 100% 29.69 in 2.0 miles WNW 8.1 mph - 0.01 in Snow Light Snow
10:38 PM 32.0°F 30.2°F 93% 29.69 in 3.0 miles West 8.1 mph - 0.01 in Snow Light Snow
10:49 PM 32.0°F 30.2°F 93% 29.69 in 1.8 miles West 8.1 mph - 0.01 in Snow Light Snow
10:55 PM 32.0°F 30.0°F 92% 29.73 in 1.2 miles West 9.2 mph - 0.01 in Snow Light Snow
11:08 PM 32.0°F 30.2°F 93% 29.70 in 3.0 miles West 6.9 mph - 0.00 in Snow Light Snow
11:20 PM 32.0°F 30.2°F 93% 29.70 in 4.0 miles West 5.8 mph - 0.00 in Snow Light Snow
11:29 PM 32.0°F 30.2°F 93% 29.71 in 1.8 miles West 6.9 mph - 0.00 in Snow Light Snow
11:37 PM 32.0°F 30.2°F 93% 29.71 in 1.5 miles West 5.8 mph - 0.00 in Snow Light Snow
11:55 PM 30.9°F 30.0°F 96% 29.75 in 0.8 miles West 6.9 mph - 0.00 in   Overcast
Moon Phase
Dec. 23 Dec. 28 Jan. 04 Jan. 11 Jan. 18
Sunrise:07:46 AM (PST) Moon Rise:01:15 PM (PST)
Sunset:04:14 PM (PST) Moon Set:03:25 AM (PST)

Copyright © 2014 The Weather Underground, Inc.